Flag for Mauritania Weather past 2 weeks in Nouakchott, Mauritania

Now
68 °F

Clear.


Feels Like: 68 °F
Forecast: 62 / 83 °F
Wind: 9 mph from East

Location: Nouakchott Airport

Current Time: Jan 26, 2015 at 12:54:09 AM

Latest Report: Jan 26, 2015 at 12:30 AM


Visibility: 5 mi

Pressure: 29.98 "Hg

Humidity: 12%

Dew point: 14 °F

Location of NouakchottLocation

Historic Weather in Nouakchott — Graph

°F

Nouakchott temperature yesterday

Maximum temperature yesterday: 86 °F (at 4:00 PM)
Minimum temperature yesterday: 57 °F (at 7:00 AM)
Average temperature yesterday: 71 °F

Past Weeks' High & Low Weather Summary

 TemperatureHumidityPressure
High91 °F (Jan 16, 3:30 PM)77% (Jan 14, 2:30 AM)30.12 "Hg (Jan 14, 2:30 AM)
Low55 °F (Jan 19, 7:30 AM)6% (Jan 25, 4:00 PM)29.86 "Hg (Jan 25, 4:00 PM)
Average71 °F29%29.99 "Hg
* Reported Midnight between Jan 10 and Jan 11 — Midnight between Jan 25 and Jan 26, Nouakchott, Weather by CustomWeather, © 2014

Note: Actual official high and low records may vary slightly from our data, if they occured in-between our weather recording intervals... More about our weather records

Advertising

Nouakchott weather history for previous 24 hours

 ConditionsComfort  
Time TempWeatherWind HumidityBarometerVisibility
12:00 AM
Jan 26
66 °FClear.8 mph13%29.98 "Hg5 mi
11:30 PM
Jan 25
68 °FClear.7 mph12%29.98 "Hg5 mi
11:00 PM70 °FClear.8 mph12%29.98 "Hg5 mi
10:30 PM73 °FClear.7 mph10%29.98 "Hg5 mi
10:00 PM73 °FClear.7 mph10%29.98 "Hg5 mi
9:30 PM75 °FClear.7 mph10%29.95 "Hg5 mi
9:00 PM75 °FClear.8 mph9%29.95 "Hg5 mi
8:30 PM73 °FClear.6 mph10%29.95 "Hg5 mi
8:00 PM75 °FClear.8 mph10%29.92 "Hg5 mi
7:30 PM75 °FClear.7 mph9%29.92 "Hg5 mi
7:00 PM79 °FClear.7 mph7%29.92 "Hg5 mi
6:30 PM82 °FClear.9 mph7%29.89 "Hg5 mi
6:00 PM82 °FClear.12 mph6%29.89 "Hg5 mi
5:30 PM84 °FClear.13 mph6%29.89 "Hg5 mi
5:00 PM84 °FClear.15 mph6%29.89 "Hg5 mi
4:30 PM84 °FClear.14 mph6%29.86 "Hg5 mi
4:00 PM86 °FClear.14 mph6%29.86 "Hg5 mi
3:30 PM84 °FClear.14 mph7%29.89 "Hg5 mi
3:00 PM84 °FClear.14 mph7%29.89 "Hg5 mi
2:30 PM84 °FClear.14 mph7%29.89 "Hg5 mi
2:00 PM84 °FClear.16 mph7%29.92 "Hg5 mi
1:30 PM82 °FClear.17 mph7%29.95 "Hg5 mi
1:00 PM82 °FClear.15 mph7%29.95 "Hg5 mi
12:30 PM81 °FClear.16 mph9%29.98 "Hg5 mi
12:00 PM79 °FClear.14 mph10%29.98 "Hg5 mi
11:30 AM77 °FClear.14 mph10%29.98 "Hg5 mi
11:00 AM73 °FSunny.12 mph12%29.98 "Hg10 mi
10:30 AM68 °FSunny.9 mph20%29.98 "Hg10 mi
10:00 AM63 °FSunny.10 mph27%29.98 "Hg10 mi
9:30 AM63 °FSunny.12 mph27%29.98 "Hg10 mi
9:00 AM59 °FSunny.8 mph36%29.98 "Hg10 mi
8:30 AM57 °FSunny.8 mph41%29.98 "Hg10 mi
8:00 AM57 °FSunny.7 mph44%29.98 "Hg10 mi
7:30 AM57 °FClear.10 mph44%29.95 "Hg10 mi
7:00 AM57 °FClear.12 mph48%29.95 "Hg10 mi
6:30 AM59 °FClear.8 mph45%29.95 "Hg10 mi
6:00 AM59 °FClear.8 mph48%29.95 "Hg10 mi
5:30 AM59 °FClear.10 mph51%29.95 "Hg10 mi
5:00 AM59 °FClear.8 mph51%29.95 "Hg10 mi
4:30 AM59 °FClear.9 mph55%29.95 "Hg10 mi
4:00 AM59 °FClear.8 mph59%29.95 "Hg10 mi
3:30 AM61 °FClear.9 mph55%29.95 "Hg10 mi
3:00 AM61 °FClear.9 mph59%29.98 "Hg10 mi
2:30 AM63 °FClear.8 mph52%29.98 "Hg10 mi
2:00 AM63 °FClear.8 mph56%29.98 "Hg10 mi
1:30 AM63 °FClear.8 mph59%29.98 "Hg10 mi
1:00 AM64 °FClear.7 mph56%29.98 "Hg10 mi
12:30 AM64 °FClear.6 mph60%29.98 "Hg10 mi
12:00 AM64 °FClear.9 mph60%30.01 "Hg10 mi
Weather by CustomWeather, © 2014

See weather overviewHow to use our weather pages